Retour au catalogue

CZ-6A DEB

ActifSSO
NORAD 54604·DEBRIS·🇨🇳 China

Lancé Nov 11, 2022 depuis Taiyuan Satellite Launch Center

Loading…

Prochains Passages (prochaines 24 heures)

TLE

FraisSource: Space-Track

Époque: Sep 14, 2026, 10:41 UTC

1 54604U 22151NE  26257.44540767  .00000236  00000-0  15585-3 0  9997
2 54604  98.8587 257.9607 0050062  99.6937 260.9893 14.10183032196846

Suivez CZ-6A DEB en temps réel avec AllMySat

Download on the App Store